Showing default

AL YAH 3, 43174

Orbit data source: Space-Track

AL YAH 3, 43174 is a payload satellite owned by Yahsat Brasil (AE) in GEO that was launched on Thu, 25 Jan 2018 UTC via an ARIANE 5ECA launch vehicle from the French Guiana (FRGUI). Payload-class satellites include a variety of spacecraft equipped with specific instruments for various scientific and technological missions. These include communications satellites like Starlink; space stations such as the ISS; scientific satellites like the Hubble; Earth observation satellites from companies like Planet Labs, Umbra, and HawkEye 360; GPS; miniature CubeSats for education and research; and military/defense satellites.

Not visible in the next 10 days
Identifier
43174, 2018-012A
Orbit
GEO
Last TLE update
8 hours ago
Origin
Manufacturer
OATK SSG
Mission
Operational Commercial Communications
Bus & Motor
STAR-2.3?, IHI BT-4
Mass
3,795 kg wet, ~2,500 kg dry
Launch date (UTC)
2018-01-25 (7 years ago)
Launch vehicle
ARIANE 5ECA
Launch site
French Guiana (FRGUI)
Object type
Payload
Rocket body
Debris
Shape & HBR
Box + 2 Pan, 18 m
Radar Cross Section
20.597 m², Large (>1 m²)

Expand to show TLE details & history

TLE from 8 hours ago
0 AL YAH 3
1 43174U 18012A   25128.87816988 -.00000149  00000-0  00000-0 0  9999
2 43174   0.5063  88.2402 0004380 318.0080 116.7329  1.00272977 26792
Epoch: 2025-05-08T21:04Z
Definitive object data (Epoch: 2025-05-08T21:04:33.877Z)
Latitude
0.4668°
Longitude
-20.06069°
Altitude
35,794.056 km
Speed
3.074 km/s
True Right ascension
10h 52m 05s
True Declination
0° 27' 59"
Sunlit
Object was in daylight at TLE epoch
Visualization TLE readout
Latitude
-0.14607°
Longitude
102.86595°
Altitude
35,795.133 km
Speed
3.074 km/s
Apparent Right ascension
19h 30m 28s
Apparent Declination
-5° 40' 39"
Sunlit
Object is in daylight
Visualization observer readout
Local Sidereal Time
13:23:55
Azimuth
93.316° ESE
Elevation
-4.892°
Doppler factor
1
Orbital elements
Apogee altitude
35,805.8 km
Perigee altitude
35,768.863 km
Semi-major axis
42,165.468 km
Eccentricity
0.000438
Inclination
0.5063°
RAAN
88.2402°
Arg. of periapsis
318.008°
True anomaly
116.77772°
Mean anomaly
116.7329°
Eccentric anomaly
116.75531°
Mean motion
0.25067 °/min
BSTAR
Unknown
Orbital period
1436.13 mins
Loading historical data...
43174 neighbors
Loading maneuver chart data...
Loading SW <> Apogee altitude chart data...
Loading historical data...
Loading historical data...
Loading historical data...
Loading historical data...
Loading historical data...
Loading historical data...
Loading historical data...
Other satellites on launch #12 in the year 2018 (2018-01-25 UTC)

AL YAH 3 Visibility forecast

Observer location: undefined°, undefined°

AL YAH 3 is not visible in the next 10 days
Span
Click to sort rows by Start time (UTC) header in descending order
Start Az.
Max El. time (UTC)
Max El. Az.
Max El.
End time (UTC)
End Az.
|